Regional Weather Roundup
Issued by NWS

Home | Current Version | Previous Version | Graphics & Text | Print | Product List | Glossary On
Versions: 1 2 3 4 5 6 7 8 9 10 11 12 13 14 15 16 17 18 19 20 21 22 23 24 25 26 27 28 29 30 31 32 33 34 35 36 37 38 39 40 41 42 43 44 45 46 47 48 49 50
000
ASUS43 KLOT 070601
RWRIL

ILLINOIS REGIONAL WEATHER ROUNDUP
NATIONAL WEATHER SERVICE CHICAGO/ROMEOVILLE IL
100 AM CDT TUE JUL 07 2015

NOTE: "FAIR" INDICATES FEW OR NO CLOUDS BELOW 12,000 FEET WITH NO
SIGNIFICANT WEATHER AND/OR OBSTRUCTIONS TO VISIBILITY.

* THESE STATIONS ARE NOT UNDER NWS QUALITY CONTROL. THEY ALSO MAY NOT
  REPORT WEATHER SUCH AS PRECIPITATION OR FOG.

ILZ001-002-007-009-015-016-024-070700-
NORTHWEST ILLINOIS

CITY           SKY/WX    TMP DP  RH WIND       PRES   REMARKS
MOLINE         RAIN      67  63  87 NW9G22    29.88R FOG
6HR MIN TEMP:  67; 6HR MAX TEMP:  72; 6HR PCP:  2.24;

STERLING*      CLOUDY    70  66  88 NW8       29.84S
$$

ILZ003-004-008-010-011-017-018-070700-
NORTH CENTRAL ILLINOIS

CITY           SKY/WX    TMP DP  RH WIND       PRES   REMARKS
ROCKFORD       LGT RAIN  69  65  86 NW17G24   29.86R FOG
6HR MIN TEMP:  69; 6HR MAX TEMP:  80; 6HR PCP:  0.17;

$$

ILZ005-006-012>014-019>023-070700-
NORTHEAST ILLINOIS

CITY           SKY/WX    TMP DP  RH WIND       PRES   REMARKS
CHICAGO-OHARE  CLOUDY    71  69  93 W7        29.83F
6HR MIN TEMP:  70; 6HR MAX TEMP:  79; 6HR PCP:  0.44;

CHICAGO-MIDWAY LGT RAIN  73  69  87 S6        29.84F
6HR MIN TEMP:  73; 6HR MAX TEMP:  83; 6HR PCP:  0.37;

AURORA         CLOUDY    72  68  87 S6        29.85F
6HR MIN TEMP:  71; 6HR MAX TEMP:  80; 6HR PCP:  1.41;

WAUKEGAN       CLOUDY    71  69  93 VRB5      29.80F
6HR MIN TEMP:  70; 6HR MAX TEMP:  79; 6HR PCP:  0.47;

DUPAGE AIRPORT CLOUDY    70  68  93 S3        29.84F
6HR MIN TEMP:  70; 6HR MAX TEMP:  79; 6HR PCP:  1.20;

WHEELING       CLOUDY    71  69  93 SW6       29.83F
6HR MIN TEMP:  71; 6HR MAX TEMP:  81; 6HR PCP:  0.77;

NORTHERLY ISL    N/A     72  68  87 S2          N/A
$$

LMZ740>746-070700-
SOUTHERN LAKE MICHIGAN

STATION/POSITION SKY/WX   TEMP    WIND        PRES    VSBY  WAVE
                          AIR SEA DIR/SP/G                  HT/PER
                          (F)     (DEG/KT/KT) (MB)    (MI)  (FT/S)
HARRISON CRIB              71     270/ 16/ 19   N/A
BURNHAM HARBOR             72     220/  5/  9   N/A
CALUMET HARBOR             73     250/  4/  9   N/A
BURNS HARBOR               77     190/ 11/ 13 1011.5F
MICHIGAN CITY              76     170/  9/ 11   N/A
MICHIGAN CITY 6N           73 68  210/  6/ 10   N/A           1
ST. JOSEPH                 71 66  270/ 10/ 10   N/A           2/ 2
$$

ILZ025>027-034>036-040-047-049-050-058-095>099-070700-
WEST-CENTRAL ILLINOIS

CITY           SKY/WX    TMP DP  RH WIND       PRES   REMARKS
QUINCY         CLOUDY    72  70  93 W7        29.87S
$$

ILZ028>032-037-038-041>044-048-051>054-059>061-070700-
CENTRAL ILLINOIS

CITY           SKY/WX    TMP DP  RH WIND       PRES   REMARKS
BLOOMINGTON    CLOUDY    77  73  88 W15       29.90R
DECATUR        CLOUDY    77  73  87 S14       29.88F
PEORIA         LGT RAIN  74  70  87 CALM      29.86F FOG
6HR MIN TEMP:  74; 6HR MAX TEMP:  86; 6HR PCP:  0.20;

SPRINGFIELD    CLOUDY    80  73  79 S12G20    29.86F HX  84
6HR MIN TEMP:  79; 6HR MAX TEMP:  84;

TAYLORVILLE    NOT AVBL
$$

ILZ033-039-045-046-055>057-062-063-070700-
EAST-CENTRAL ILLINOIS

CITY           SKY/WX    TMP DP  RH WIND       PRES   REMARKS
CHAMPAIGN      CLOUDY    76  73  91 S9        29.89F
MATTOON        MOCLDY    76  73  91 S9        29.90F
$$

ILZ079-100>102-070700-
SOUTHWEST ILLINOIS

CITY           SKY/WX    TMP DP  RH WIND       PRES   REMARKS
BELLEVILLE     CLOUDY    78  77  97 S13       29.90S HX  81
CAHOKIA*       CLOUDY    80  73  79 S7        29.89F HX  84
$$

ILZ064>066-069>071-074>076-080>082-084>086-088>090-092>094-070700-
SOUTH-CENTRAL ILLINOIS

CITY           SKY/WX    TMP DP  RH WIND       PRES   REMARKS
CARBONDALE     MOCLDY    78  73  84 S13       29.95F HX  81
6HR MIN TEMP:  77; 6HR MAX TEMP:  83;

MT. VERNON     PTCLDY    77  70  78 S8        29.95F
$$

ILZ067-068-072-073-078-083-087-091-070700-
SOUTHEAST ILLINOIS

CITY           SKY/WX    TMP DP  RH WIND       PRES   REMARKS
LAWRENCEVILLE  MOCLDY    76  73  91 S9        29.95F
$$

ABBREVIATIONS USED IN REMARKS
   TC - TEMPERATURE IN CELSIUS
  WCI - WIND CHILL INDEX
   HX - HEAT INDEX
  VSB - VISIBILITY
$$




USA.gov is the U.S. government's official web portal to all federal, state and local government web resources and services.